Weather History for LIRN - February, 2014

Change the Weather History Date:

Thursday, February 13, 2014

  Actual Average Record
Temperature  
Mean Temperature 49 °F -  
Max Temperature 59 °F 57 °F 62 °F (1998)
Min Temperature 39 °F 41 °F 32 °F (2006)
Degree Days  
Heating Degree Days 16    
Moisture  
Dew Point 44 °F    
Average Humidity 78    
Maximum Humidity 100    
Minimum Humidity 45    
Precipitation  
Precipitation 0.00 in 0.12 in - ()
Sea Level Pressure  
Sea Level Pressure 29.96 in    
Wind  
Wind Speed 4 mph ()    
Max Wind Speed 12 mph    
Max Gust Speed -    
Visibility 6.5 miles    
Events      
Averages and records for this station are not official NWS values.
T = Trace of Precipitation, MM = Missing Value Source: Averaged Metar Reports

Daily Weather History Graph

Daily Weather History Graph

Search for Another Location

Airport or City:

Trip Planner

Search our weather history database for the weather conditions in past years. The results will help you decide how hot, cold, wet, or windy it might be!

Date:

Astronomy

Feb. 13, 2014 Rise Set
Actual Time 6:59 AM CET 5:34 PM CET
Civil Twilight 6:31 AM CET 6:02 PM CET
Nautical Twilight 5:59 AM CET 6:35 PM CET
Astronomical Twilight 5:27 AM CET 7:07 PM CET
Moon 4:27 PM CET (2/13) 5:43 AM CET (2/13)
Length of Visible Light 11h 31m
Length of Day
10h 34m
Waxing Gibbous, 98% of the Moon is Illuminated
Feb 13
Waxing Gibbous
Feb 15
Full
Feb 22
Last Quarter
Mar 1
New
Mar 8
First Quarter

Hourly Weather History & Observations

Time (CET) Temp. Windchill Dew Point Humidity Pressure Visibility Wind Dir Wind Speed Gust Speed Precip Events Conditions
12:20 AM 46.4 °F - 44.6 °F 93% 29.92 in 6.2 mi Variable 1.2 mph - N/A   Partly Cloudy
12:50 AM 44.6 °F - 42.8 °F 93% 29.92 in 6.2 mi Variable 2.3 mph - N/A   Partly Cloudy
1:00 AM 45 °F - 43 °F 92% 29.94 in 7 mi NNW 3.5 mph - -   Scattered Clouds
1:20 AM 46.4 °F 45.2 °F 46.4 °F 100% 29.92 in 6.2 mi NW 3.5 mph - N/A   Scattered Clouds
1:50 AM 48.2 °F - 44.6 °F 87% 29.92 in 6.2 mi North 4.6 mph - N/A   Scattered Clouds
2:20 AM 46.4 °F 45.2 °F 44.6 °F 93% 29.92 in 6.2 mi NNE 3.5 mph - N/A   Scattered Clouds
2:50 AM 46.4 °F - 44.6 °F 93% 29.92 in 6.2 mi Variable 2.3 mph - N/A   Scattered Clouds
3:20 AM 42.8 °F - 41.0 °F 93% 29.92 in 6.2 mi NNW 2.3 mph - N/A   Scattered Clouds
3:50 AM 42.8 °F - 41.0 °F 93% 29.92 in 6.2 mi Variable 2.3 mph - N/A   Scattered Clouds
4:00 AM 43 °F - 42 °F 95% 29.94 in 7 mi North 2.3 mph - -   Scattered Clouds
4:20 AM 42.8 °F 41.1 °F 41.0 °F 93% 29.92 in 6.2 mi NW 3.5 mph - N/A   Scattered Clouds
4:50 AM 42.8 °F 41.1 °F 42.8 °F 100% 29.95 in 5.0 mi WNW 3.5 mph - N/A   Scattered Clouds
5:20 AM 42.8 °F - 41.0 °F 93% 29.95 in 5.0 mi NW 2.3 mph - N/A   Scattered Clouds
5:50 AM 44.6 °F 43.1 °F 42.8 °F 93% 29.95 in 5.0 mi ENE 3.5 mph - N/A   Scattered Clouds
6:20 AM 41.0 °F - 41.0 °F 100% 29.95 in 5.0 mi Variable 2.3 mph - N/A   Scattered Clouds
6:50 AM 41.0 °F - 41.0 °F 100% 29.98 in 6.2 mi North 2.3 mph - N/A   Partly Cloudy
7:00 AM 41 °F - 40 °F 93% 29.99 in 9 mi NNW 2.3 mph - -   Scattered Clouds
7:20 AM 42.8 °F - 42.8 °F 100% 29.98 in - North 1.2 mph - N/A   Clear
7:50 AM 42.8 °F - 42.8 °F 100% 29.98 in - NW 2.3 mph - N/A   Clear
8:20 AM 46.4 °F - 44.6 °F 93% 29.98 in - Variable 2.3 mph - N/A   Clear
8:50 AM 48.2 °F - 44.6 °F 87% 30.01 in - NE 3.5 mph - N/A   Clear
9:20 AM 50.0 °F - 44.6 °F 82% 30.01 in - Variable 2.3 mph - N/A   Clear
9:50 AM 51.8 °F - 46.4 °F 82% 30.01 in 6.2 mi Variable 2.3 mph - N/A   Partly Cloudy
10:00 AM 54 °F - 46 °F 65% 30.01 in 9 mi NNE 2.3 mph - -   Scattered Clouds
10:20 AM 55.4 °F - 48.2 °F 77% 30.01 in 6.2 mi Variable 1.2 mph - N/A   Partly Cloudy
10:50 AM 57.2 °F - 48.2 °F 72% 30.01 in 6.2 mi Variable 3.5 mph - N/A   Partly Cloudy
11:20 AM 55.4 °F - 46.4 °F 72% 30.01 in 6.2 mi Variable 2.3 mph - N/A   Partly Cloudy
11:50 AM 57.2 °F - 48.2 °F 72% 29.98 in 6.2 mi South 6.9 mph - N/A   Partly Cloudy
12:20 PM 57.2 °F - 48.2 °F 72% 29.98 in 6.2 mi South 5.8 mph - N/A   Partly Cloudy
12:50 PM 57.2 °F - 46.4 °F 67% 29.98 in 6.2 mi South 8.1 mph - N/A   Scattered Clouds
1:00 PM 58 °F - 47 °F 58% 29.99 in 6 mi SSW 8.1 mph - -   Partly Cloudy
1:20 PM 57.2 °F - 46.4 °F 67% 29.98 in 6.2 mi South 8.1 mph - N/A   Scattered Clouds
1:50 PM 59.0 °F - 37.4 °F 45% 29.98 in 6.2 mi West 11.5 mph - N/A   Scattered Clouds
2:20 PM 57.2 °F - 41.0 °F 55% 29.95 in 6.2 mi WNW 6.9 mph - N/A   Scattered Clouds
2:50 PM 57.2 °F - 42.8 °F 59% 29.95 in 6.2 mi West 8.1 mph - N/A   Scattered Clouds
3:20 PM 57.2 °F - 42.8 °F 59% 29.95 in 6.2 mi WSW 6.9 mph - N/A   Scattered Clouds
3:50 PM 57.2 °F - 44.6 °F 63% 29.95 in 6.2 mi SW 8.1 mph - N/A   Scattered Clouds
4:00 PM 57 °F - 45 °F 55% 29.96 in 6 mi SW 6.9 mph - -   Partly Cloudy
4:20 PM 57.2 °F - 46.4 °F 67% 29.95 in 6.2 mi SSW 6.9 mph - N/A   Scattered Clouds
4:50 PM 55.4 °F - 46.4 °F 72% 29.95 in 6.2 mi SW 4.6 mph - N/A   Scattered Clouds
5:20 PM 55.4 °F - 46.4 °F 72% 29.95 in 6.2 mi West 5.8 mph - N/A   Scattered Clouds
5:50 PM 53.6 °F - 44.6 °F 72% 29.92 in 6.2 mi WSW 6.9 mph - N/A   Mostly Cloudy
6:20 PM 55.4 °F - 44.6 °F 67% 29.95 in 6.2 mi SSW 6.9 mph - N/A   Mostly Cloudy
6:50 PM 55.4 °F - 44.6 °F 67% 29.95 in 6.2 mi SSW 6.9 mph - N/A   Partly Cloudy
7:00 PM 55 °F - 45 °F 60% 29.96 in 12 mi SW 8.1 mph - -   Scattered Clouds
7:20 PM 55.4 °F - 44.6 °F 67% 29.95 in 6.2 mi SW 8.1 mph - N/A   Partly Cloudy
7:50 PM 53.6 °F - 42.8 °F 67% 29.95 in 6.2 mi SSW 8.1 mph - N/A   Partly Cloudy
8:20 PM 53.6 °F - 44.6 °F 72% 29.95 in 6.2 mi SSW 6.9 mph - N/A   Partly Cloudy
8:50 PM 55.4 °F - 44.6 °F 67% 29.92 in 6.2 mi SSW 6.9 mph - N/A   Scattered Clouds
9:20 PM 53.6 °F - 44.6 °F 72% 29.95 in 6.2 mi SSW 6.9 mph - N/A   Scattered Clouds
9:50 PM 53.6 °F - 44.6 °F 72% 29.92 in 6.2 mi SSW 6.9 mph - N/A   Partly Cloudy
10:00 PM 54 °F - 45 °F 62% 29.94 in 12 mi SSW 6.9 mph - -   Scattered Clouds
10:20 PM 55.4 °F - 46.4 °F 72% 29.92 in 6.2 mi SSW 6.9 mph - N/A   Partly Cloudy
10:50 PM 55.4 °F - 44.6 °F 67% 29.92 in 6.2 mi SW 5.8 mph - N/A   Scattered Clouds
11:20 PM 55.4 °F - 46.4 °F 72% 29.92 in 6.2 mi SSW 6.9 mph - N/A   Scattered Clouds
11:50 PM 55.4 °F - 46.4 °F 72% 29.92 in 6.2 mi SW 5.8 mph - N/A   Scattered Clouds